Location: A�t Bou Chrif
(32.7193°N, 5.2385°W)
Time: 04:18:25
(UTC+00:00)

KM-V1 - Pass Details

Date: 08 August 2020
Orbit: 247 x 3935 km, 31.1° (Epoch: 20 September)

Event Time Altitude Azimuth Distance (km) Brightness Sun altitude
Rises 19:26:13 0° 265° (W) 4,356 10.2 -3.5°
Reaches altitude 10° 19:30:11 10° 264° (W) 2,760 9.0 -4.3°
Maximum altitude 19:36:08 72° 181° (S) 589 4.4 -5.4°
Drops below altitude 10° 19:39:11 10° 96° (E) 1,437 5.8 -6.0°
Enters shadow 19:39:37 - 95° (E) 1,620 6.1 -6.1°
